Location: ?ern� Novina
(50.6762°N, 14.8696°E)
Time: 02:53:06
(UTC+00:00)

Cosmos 1844 Rocket - Pass Details

Date: 03 March 2021
Orbit: 826 x 843 km, 71.0° (Epoch: 13 April)

Event Time Altitude Azimuth Distance (km) Brightness Sun altitude
Rises 18:21:37 0° 328° (NNW) 3,377 6.5 -16.0°
Reaches altitude 10° 18:24:04 10° 326° (NNW) 2,439 5.7 -16.4°
Maximum altitude 18:29:36 67° 246° (WSW) 898 3.0 -17.2°
Drops below altitude 10° 18:35:06 10° 164° (SSE) 2,424 4.8 -18.1°
Enters shadow 18:36:01 - 163° (SSE) 2,770 5.1 -18.2°
